Weather History for Taos, NM

Change the Weather History Date:

Friday, February 21, 2014

  Actual Average Record
Temperature  
Mean Temperature 32 °F -  
Max Temperature 48 °F 42 °F 60 °F (2000)
Min Temperature 15 °F 17 °F 6 °F (2006)
Degree Days  
Heating Degree Days 34    
Moisture  
Dew Point 3 °F    
Average Humidity 34    
Maximum Humidity 54    
Minimum Humidity 18    
Precipitation  
Precipitation 0.00 in - - ()
Sea Level Pressure  
Sea Level Pressure 30.07 in    
Wind  
Wind Speed 7 mph (SSE)    
Max Wind Speed 18 mph    
Max Gust Speed 22 mph    
Visibility 10 miles    
Events      
Averages and records for this station are not official NWS values.
T = Trace of Precipitation, MM = Missing Value Source: NWS Daily Summary

Daily Weather History Graph

Daily Weather History Graph

Search for Another Location

Airport:

Trip Planner

Search our weather history database for the weather conditions in past years. The results will help you decide how hot, cold, wet, or windy it might be!

Date:

Astronomy

Feb. 21, 2014 Rise Set
Actual Time 6:43 AM MST 5:49 PM MST
Civil Twilight 6:17 AM MST 6:15 PM MST
Nautical Twilight 5:47 AM MST 6:45 PM MST
Astronomical Twilight 5:17 AM MST 7:15 PM MST
Moon No Moon Rise 10:20 AM MST (2/21)
Length of Visible Light 11h 58m
Length of Day
11h 06m
Waning Gibbous, 60% of the Moon is Illuminated
Feb 21
Waning Gibbous
Feb 22
Last Quarter
Mar 1
New
Mar 8
First Quarter
Mar 16
Full

Hourly Weather History & Observations

Time (MST) Temp. Windchill Dew Point Humidity Pressure Visibility Wind Dir Wind Speed Gust Speed Precip Events Conditions
12:15 AM 17.6 °F 10.7 °F -4.0 °F 38% 30.14 in 10.0 mi ESE 4.6 mph - N/A   Clear
12:35 AM 17.6 °F 10.7 °F -0.4 °F 45% 30.13 in 10.0 mi East 4.6 mph - N/A   Clear
12:55 AM 15.8 °F 10.2 °F -2.2 °F 45% 30.13 in 10.0 mi East 3.5 mph - N/A   Clear
1:15 AM 17.6 °F 10.7 °F -2.2 °F 42% 30.13 in 10.0 mi East 4.6 mph - N/A   Clear
1:35 AM 17.6 °F 8.2 °F -2.2 °F 42% 30.12 in 10.0 mi ENE 6.9 mph - N/A   Clear
1:55 AM 17.6 °F 8.2 °F -0.4 °F 45% 30.12 in 10.0 mi East 6.9 mph - N/A   Clear
2:15 AM 17.6 °F 12.3 °F -0.4 °F 45% 30.12 in 10.0 mi ENE 3.5 mph - N/A   Clear
2:35 AM 17.6 °F 10.7 °F -0.4 °F 45% 30.12 in 10.0 mi East 4.6 mph - N/A   Clear
2:55 AM 17.6 °F 6.4 °F -2.2 °F 42% 30.11 in 10.0 mi ENE 9.2 mph - N/A   Clear
3:15 AM 17.6 °F 7.3 °F -2.2 °F 42% 30.11 in 10.0 mi East 8.1 mph - N/A   Clear
3:35 AM 15.8 °F 8.6 °F -2.2 °F 45% 30.11 in 10.0 mi East 4.6 mph - N/A   Clear
3:55 AM 15.8 °F 5.1 °F -0.4 °F 49% 30.11 in 10.0 mi East 8.1 mph - N/A   Clear
4:15 AM 15.8 °F 6.1 °F -2.2 °F 45% 30.11 in 10.0 mi East 6.9 mph - N/A   Clear
4:35 AM 17.6 °F 9.3 °F -0.4 °F 45% 30.11 in 10.0 mi East 5.8 mph - N/A   Clear
4:55 AM 17.6 °F 6.4 °F -0.4 °F 45% 30.11 in 10.0 mi East 9.2 mph - N/A   Clear
5:15 AM 17.6 °F 7.3 °F -0.4 °F 45% 30.11 in 10.0 mi ENE 8.1 mph - N/A   Clear
5:35 AM 19.4 °F 11.5 °F -0.4 °F 42% 30.11 in 10.0 mi ENE 5.8 mph - N/A   Clear
5:55 AM 17.6 °F 8.2 °F -0.4 °F 45% 30.11 in 10.0 mi ENE 6.9 mph - N/A   Clear
6:15 AM 19.4 °F 8.6 °F -0.4 °F 42% 30.10 in 10.0 mi ENE 9.2 mph - N/A   Clear
6:35 AM 19.4 °F 8.6 °F 1.4 °F 46% 30.10 in 10.0 mi ENE 9.2 mph - N/A   Clear
6:55 AM 17.6 °F 7.3 °F 1.4 °F 49% 30.11 in 10.0 mi East 8.1 mph - N/A   Clear
7:15 AM 17.6 °F 9.3 °F 3.2 °F 53% 30.11 in 10.0 mi East 5.8 mph - N/A   Clear
7:35 AM 21.2 °F - 5.0 °F 50% 30.11 in 10.0 mi Calm Calm - N/A   Clear
7:55 AM 23.0 °F - 3.2 °F 43% 30.12 in 10.0 mi Calm Calm - N/A   Clear
8:15 AM 24.8 °F - 5.0 °F 43% 30.12 in 10.0 mi Calm Calm - N/A   Clear
8:35 AM 28.4 °F 24.6 °F 5.0 °F 37% 30.13 in 10.0 mi NW 3.5 mph - N/A   Clear
8:55 AM 30.2 °F 26.7 °F 3.2 °F 32% 30.13 in 10.0 mi NW 3.5 mph - N/A   Clear
9:15 AM 33.8 °F 27.0 °F 1.4 °F 25% 30.13 in 10.0 mi SW 8.1 mph - N/A   Clear
9:35 AM 33.8 °F 27.7 °F 1.4 °F 25% 30.13 in 10.0 mi SW 6.9 mph - N/A   Clear
9:55 AM 35.6 °F 27.5 °F 1.4 °F 24% 30.12 in 10.0 mi SW 11.5 mph - N/A   Clear
10:15 AM 35.6 °F 27.5 °F 1.4 °F 24% 30.12 in 10.0 mi SW 11.5 mph - N/A   Clear
10:35 AM 37.4 °F 29.3 °F 1.4 °F 22% 30.11 in 10.0 mi SW 12.7 mph - N/A   Mostly Cloudy
10:55 AM 39.2 °F 31.6 °F 1.4 °F 21% 30.10 in 10.0 mi WSW 12.7 mph - N/A   Scattered Clouds
11:15 AM 39.2 °F 30.5 °F 3.2 °F 22% 30.10 in 10.0 mi SW 16.1 mph 19.6 mph N/A   Clear
11:35 AM 39.2 °F 31.2 °F 3.2 °F 22% 30.09 in 10.0 mi SW 13.8 mph - N/A   Clear
11:55 AM 41.0 °F 33.5 °F 3.2 °F 21% 30.09 in 10.0 mi WSW 13.8 mph 17.3 mph N/A   Clear
12:15 PM 41.0 °F 35.8 °F 3.2 °F 21% 30.08 in 10.0 mi SSW 8.1 mph - N/A   Clear
12:35 PM 42.8 °F 38.6 °F 3.2 °F 19% 30.07 in 10.0 mi WSW 6.9 mph - N/A   Clear
12:55 PM 42.8 °F 38.6 °F 5.0 °F 21% 30.06 in 10.0 mi South 6.9 mph 16.1 mph N/A   Clear
1:15 PM 42.8 °F 39.3 °F 5.0 °F 21% 30.05 in 10.0 mi South 5.8 mph - N/A   Clear
1:35 PM 44.6 °F 39.2 °F 6.8 °F 21% 30.03 in 10.0 mi SSE 10.4 mph - N/A   Clear
1:55 PM 46.4 °F 40.4 °F 8.6 °F 22% 30.01 in 10.0 mi West 13.8 mph 20.7 mph N/A   Clear
2:15 PM 46.4 °F 42.4 °F 8.6 °F 22% 30.01 in 10.0 mi SW 8.1 mph 18.4 mph N/A   Partly Cloudy
2:35 PM 48.2 °F - 6.8 °F 19% 30.00 in 10.0 mi NW 6.9 mph 17.3 mph N/A   Partly Cloudy
2:55 PM 48.2 °F - 6.8 °F 19% 30.01 in 10.0 mi WNW 13.8 mph - N/A   Clear
3:15 PM 48.2 °F - 6.8 °F 19% 30.00 in 10.0 mi West 10.4 mph 16.1 mph N/A   Clear
3:35 PM 48.2 °F - 6.8 °F 19% 30.01 in 10.0 mi West 11.5 mph 18.4 mph N/A   Clear
3:55 PM 48.2 °F - 6.8 °F 19% 30.00 in 10.0 mi West 18.4 mph 21.9 mph N/A   Clear
4:15 PM 46.4 °F 39.5 °F 6.8 °F 20% 30.00 in 10.0 mi West 17.3 mph - N/A   Clear
4:35 PM 46.4 °F 40.1 °F 5.0 °F 18% 30.00 in 10.0 mi WSW 15.0 mph - N/A   Clear
4:55 PM 44.6 °F 38.4 °F 5.0 °F 20% 30.01 in 10.0 mi West 12.7 mph 20.7 mph N/A   Clear
5:15 PM 44.6 °F 38.4 °F 3.2 °F 18% 30.01 in 10.0 mi West 12.7 mph - N/A   Clear
5:35 PM 42.8 °F 37.0 °F 3.2 °F 19% 30.02 in 10.0 mi West 10.4 mph - N/A   Clear
5:55 PM 37.4 °F 31.4 °F 1.4 °F 22% 30.02 in 10.0 mi West 8.1 mph - N/A   Clear
6:15 PM 37.4 °F 32.8 °F 3.2 °F 24% 30.02 in 10.0 mi West 5.8 mph - N/A   Clear
6:35 PM 35.6 °F 30.7 °F 1.4 °F 24% 30.03 in 10.0 mi West 5.8 mph - N/A   Clear
6:55 PM 33.8 °F 27.7 °F 1.4 °F 25% 30.04 in 10.0 mi West 6.9 mph - N/A   Clear
7:15 PM 35.6 °F 30.7 °F 3.2 °F 26% 30.04 in 10.0 mi West 5.8 mph - N/A   Clear
7:35 PM 35.6 °F 29.9 °F 3.2 °F 26% 30.04 in 10.0 mi WSW 6.9 mph - N/A   Clear
7:55 PM 32.0 °F 25.6 °F 1.4 °F 27% 30.04 in 10.0 mi SW 6.9 mph - N/A   Clear
8:15 PM 28.4 °F 21.2 °F 1.4 °F 31% 30.04 in 10.0 mi SE 6.9 mph - N/A   Clear
8:35 PM 24.8 °F 16.1 °F 1.4 °F 36% 30.04 in 10.0 mi SE 8.1 mph - N/A   Clear
8:55 PM 24.8 °F 15.3 °F 3.2 °F 40% 30.04 in 10.0 mi SE 9.2 mph - N/A   Clear
9:15 PM 23.0 °F 13.9 °F 3.2 °F 43% 30.05 in 10.0 mi East 8.1 mph - N/A   Clear
9:35 PM 23.0 °F 12.4 °F 3.2 °F 43% 30.04 in 10.0 mi ESE 10.4 mph - N/A   Clear
9:55 PM 24.8 °F 16.9 °F 3.2 °F 40% 30.04 in 10.0 mi SE 6.9 mph - N/A   Clear
10:15 PM 24.8 °F 16.9 °F 5.0 °F 43% 30.03 in 10.0 mi SE 6.9 mph - N/A   Clear
10:35 PM 26.6 °F 21.2 °F 6.8 °F 43% 30.04 in 10.0 mi East 4.6 mph - N/A   Clear
10:55 PM 24.8 °F 19.1 °F 3.2 °F 40% 30.03 in 10.0 mi East 4.6 mph - N/A   Clear
11:15 PM 23.0 °F 14.7 °F 5.0 °F 46% 30.03 in 10.0 mi East 6.9 mph - N/A   Clear
11:35 PM 21.2 °F 13.6 °F 6.8 °F 54% 30.03 in 10.0 mi East 5.8 mph - N/A   Clear
11:55 PM 21.2 °F 10.9 °F 5.0 °F 50% 30.02 in 10.0 mi East 9.2 mph - N/A   Clear